GFA461 OBBI-OKKK

Flight info

Callsign GFA461
Flight time 0h 54m
Altitude 24000
Route BHR075/12L BHR A453 DEBTI
Aircraft A320/M-SDE3FGHIRWY/LB1

Departure

Time 2026-04-27 15:33
Airport Bahrain International Airport (OBBI)

Arrival

Time 2026-04-27 16:27
Airport Kuwait International Airport (OKKK)
Time Latitude Longitude Altitude Speed Heading
2026-04-27 15:02 26.26881 50.62933 20 ft 0 kts 212°
2026-04-27 15:04 26.26928 50.62851 22 ft 0 kts 213°
2026-04-27 15:21 26.26935 50.62856 19 ft 3 kts 213°
2026-04-27 15:22 26.26955 50.62871 21 ft 3 kts 216°
2026-04-27 15:22 26.26974 50.62888 22 ft 3 kts 220°
2026-04-27 15:22 26.26992 50.62906 22 ft 3 kts 231°
2026-04-27 15:22 26.27004 50.62927 21 ft 3 kts 267°
2026-04-27 15:23 26.27003 50.62939 19 ft 0 kts 302°
2026-04-27 15:26 26.27007 50.62931 21 ft 6 kts 303°
2026-04-27 15:26 26.27066 50.62879 19 ft 10 kts 28°
2026-04-27 15:27 26.27144 50.62910 22 ft 14 kts 339°
2026-04-27 15:27 26.27201 50.62821 20 ft 14 kts 304°
2026-04-27 15:27 26.27251 50.62740 20 ft 12 kts 302°
2026-04-27 15:27 26.27295 50.62667 21 ft 11 kts 306°
2026-04-27 15:28 26.27334 50.62600 20 ft 10 kts 302°
2026-04-27 15:28 26.27372 50.62532 20 ft 10 kts 302°
2026-04-27 15:28 26.27411 50.62462 20 ft 11 kts 301°
2026-04-27 15:28 26.27452 50.62386 19 ft 12 kts 301°
2026-04-27 15:29 26.27496 50.62301 19 ft 13 kts 301°
2026-04-27 15:29 26.27556 50.62221 19 ft 14 kts 304°
2026-04-27 15:29 26.27604 50.62127 19 ft 14 kts 302°
2026-04-27 15:29 26.27659 50.62028 19 ft 16 kts 303°
2026-04-27 15:30 26.27720 50.61923 20 ft 17 kts 302°
2026-04-27 15:30 26.27786 50.61816 21 ft 17 kts 302°
2026-04-27 15:30 26.27847 50.61711 20 ft 15 kts 303°
2026-04-27 15:30 26.27925 50.61648 21 ft 13 kts 349°
2026-04-27 15:31 26.28000 50.61678 22 ft 11 kts 35°
2026-04-27 15:31 26.28029 50.61734 22 ft 8 kts 117°
2026-04-27 15:31 26.28009 50.61762 21 ft 0 kts 121°
2026-04-27 15:32 26.27992 50.61794 24 ft 30 kts 121°
2026-04-27 15:32 26.27732 50.62244 22 ft 104 kts 123°
2026-04-27 15:32 26.27235 50.63110 20 ft 159 kts 123°
2026-04-27 15:32 26.26589 50.64223 467 ft 171 kts 118°
2026-04-27 15:33 26.26274 50.65492 1133 ft 176 kts 90°
2026-04-27 15:33 26.26435 50.66905 1543 ft 195 kts 79°
2026-04-27 15:33 26.26711 50.68473 1820 ft 217 kts 78°
2026-04-27 15:33 26.27018 50.70209 2146 ft 241 kts 78°
2026-04-27 15:34 26.27354 50.72133 2606 ft 263 kts 78°
2026-04-27 15:34 26.27712 50.74176 3349 ft 272 kts 78°
2026-04-27 15:34 26.28088 50.76268 4149 ft 279 kts 78°
2026-04-27 15:34 26.28518 50.78399 4952 ft 286 kts 71°
2026-04-27 15:35 26.29506 50.80354 5570 ft 297 kts 46°
2026-04-27 15:35 26.31190 50.81692 6314 ft 300 kts 19°
2026-04-27 15:35 26.33224 50.82098 7094 ft 299 kts 353°
2026-04-27 15:35 26.35209 50.81511 7924 ft 296 kts 329°
2026-04-27 15:36 26.36778 50.80071 8769 ft 293 kts 307°
2026-04-27 15:36 26.38032 50.78273 9672 ft 295 kts 304°
2026-04-27 15:36 26.39283 50.76455 10497 ft 296 kts 304°
2026-04-27 15:36 26.40539 50.74627 11327 ft 298 kts 304°
2026-04-27 15:37 26.41808 50.72783 12151 ft 301 kts 305°
2026-04-27 15:37 26.43089 50.70925 12977 ft 303 kts 305°
2026-04-27 15:37 26.44380 50.69057 13762 ft 306 kts 305°
2026-04-27 15:37 26.45687 50.67169 14468 ft 308 kts 305°
2026-04-27 15:38 26.47002 50.65268 15173 ft 311 kts 305°
2026-04-27 15:38 26.48331 50.63342 15644 ft 315 kts 304°
2026-04-27 15:38 26.49666 50.61406 15996 ft 316 kts 304°
2026-04-27 15:38 26.51012 50.59454 16717 ft 318 kts 304°
2026-04-27 15:39 26.52372 50.57493 17430 ft 321 kts 306°
2026-04-27 15:39 26.53934 50.55689 18105 ft 327 kts 316°
2026-04-27 15:39 26.55808 50.54206 18610 ft 334 kts 326°
2026-04-27 15:39 26.57943 50.53128 18777 ft 339 kts 336°
2026-04-27 15:40 26.60182 50.52305 18812 ft 339 kts 336°
2026-04-27 15:40 26.62424 50.51477 18819 ft 345 kts 336°
2026-04-27 15:40 26.64732 50.50610 18995 ft 361 kts 336°
2026-04-27 15:40 26.67131 50.49706 19453 ft 367 kts 336°
2026-04-27 15:41 26.69488 50.48612 19978 ft 366 kts 327°
2026-04-27 15:41 26.71615 50.47073 20518 ft 364 kts 316°
2026-04-27 15:41 26.73496 50.45189 20756 ft 363 kts 311°
2026-04-27 15:41 26.75334 50.43243 20820 ft 365 kts 311°
2026-04-27 15:42 26.77186 50.41270 21294 ft 369 kts 311°
2026-04-27 15:42 26.79048 50.39290 21870 ft 371 kts 311°
2026-04-27 15:42 26.80930 50.37291 22399 ft 374 kts 311°
2026-04-27 15:42 26.82827 50.35280 22931 ft 377 kts 311°
2026-04-27 15:43 26.84741 50.33251 23431 ft 381 kts 311°
2026-04-27 15:43 26.86670 50.31206 23715 ft 383 kts 311°
2026-04-27 15:43 26.88609 50.29151 23798 ft 383 kts 311°
2026-04-27 15:43 26.90546 50.27099 23815 ft 383 kts 311°
2026-04-27 15:44 26.92481 50.25051 23822 ft 382 kts 310°
2026-04-27 15:44 26.94403 50.23015 23811 ft 380 kts 310°
2026-04-27 15:44 26.96323 50.20977 23816 ft 380 kts 310°
2026-04-27 15:44 26.98239 50.18940 23810 ft 380 kts 310°
2026-04-27 15:45 27.00161 50.16895 23815 ft 382 kts 311°
2026-04-27 15:45 27.02091 50.14841 23813 ft 383 kts 311°
2026-04-27 15:45 27.04023 50.12783 23813 ft 383 kts 310°
2026-04-27 15:45 27.05814 50.10601 23812 ft 379 kts 305°
2026-04-27 15:46 27.07523 50.08348 23811 ft 379 kts 305°
2026-04-27 15:46 27.09234 50.06095 23826 ft 378 kts 305°
2026-04-27 15:46 27.10923 50.03878 23813 ft 371 kts 305°
2026-04-27 15:46 27.12596 50.01682 23814 ft 369 kts 305°
2026-04-27 15:47 27.14263 49.99492 23813 ft 369 kts 305°
2026-04-27 15:47 27.15927 49.97302 23816 ft 369 kts 304°
2026-04-27 15:47 27.17589 49.95109 23809 ft 370 kts 305°
2026-04-27 15:47 27.19244 49.92925 23810 ft 372 kts 305°
2026-04-27 15:48 27.20946 49.90687 23810 ft 372 kts 305°
2026-04-27 15:48 27.22608 49.88502 23800 ft 376 kts 306°
2026-04-27 15:48 27.24313 49.86258 23798 ft 376 kts 305°
2026-04-27 15:49 27.27692 49.81817 23808 ft 373 kts 305°
2026-04-27 15:49 27.29371 49.79599 23810 ft 373 kts 305°
2026-04-27 15:49 27.31050 49.77372 23805 ft 373 kts 305°
2026-04-27 15:49 27.32723 49.75151 23805 ft 373 kts 305°
2026-04-27 15:50 27.34400 49.72927 23804 ft 374 kts 305°
2026-04-27 15:50 27.36091 49.70685 23808 ft 376 kts 305°
2026-04-27 15:50 27.37786 49.68440 23808 ft 377 kts 305°
2026-04-27 15:50 27.39480 49.66200 23807 ft 377 kts 305°
2026-04-27 15:51 27.41177 49.63957 23828 ft 376 kts 305°
2026-04-27 15:51 27.42869 49.61720 23829 ft 375 kts 305°
2026-04-27 15:51 27.44554 49.59487 23825 ft 374 kts 305°
2026-04-27 15:51 27.46234 49.57257 23827 ft 373 kts 305°
2026-04-27 15:52 27.47927 49.55057 23825 ft 374 kts 308°
2026-04-27 15:52 27.49904 49.53105 23826 ft 379 kts 315°
2026-04-27 15:52 27.51962 49.51259 23806 ft 379 kts 316°
2026-04-27 15:52 27.54028 49.49413 23801 ft 380 kts 316°
2026-04-27 15:53 27.56105 49.47562 23796 ft 380 kts 316°
2026-04-27 15:53 27.58173 49.45717 23818 ft 380 kts 315°
2026-04-27 15:53 27.60249 49.43861 23820 ft 380 kts 315°
2026-04-27 15:53 27.62317 49.42007 23817 ft 380 kts 315°
2026-04-27 15:54 27.64388 49.40146 23816 ft 380 kts 315°
2026-04-27 15:54 27.66456 49.38286 23808 ft 380 kts 315°
2026-04-27 15:54 27.68516 49.36433 23813 ft 380 kts 315°
2026-04-27 15:54 27.70585 49.34568 23804 ft 380 kts 315°
2026-04-27 15:55 27.72646 49.32712 23807 ft 379 kts 315°
2026-04-27 15:55 27.74040 49.31458 23817 ft 379 kts 315°
2026-04-27 15:55 27.76777 49.28997 23816 ft 379 kts 315°
2026-04-27 15:55 27.78837 49.27144 23819 ft 379 kts 315°
2026-04-27 15:56 27.80902 49.25284 23812 ft 379 kts 315°
2026-04-27 15:56 27.82958 49.23429 23811 ft 379 kts 315°
2026-04-27 15:56 27.85013 49.21570 23810 ft 378 kts 315°
2026-04-27 15:56 27.87073 49.19724 23808 ft 380 kts 317°
2026-04-27 15:57 27.89334 49.18127 23804 ft 385 kts 323°
2026-04-27 15:57 27.91653 49.16619 23818 ft 385 kts 323°
2026-04-27 15:57 27.93976 49.15103 23806 ft 385 kts 323°
2026-04-27 15:57 27.96293 49.13587 23799 ft 386 kts 323°
2026-04-27 15:58 27.98615 49.12062 23797 ft 384 kts 323°
2026-04-27 15:58 28.00899 49.10564 23807 ft 377 kts 322°
2026-04-27 15:58 28.03158 49.09080 23807 ft 375 kts 322°
2026-04-27 15:58 28.05406 49.07597 23803 ft 374 kts 322°
2026-04-27 15:59 28.07652 49.06116 23807 ft 373 kts 322°
2026-04-27 15:59 28.09901 49.04636 23818 ft 373 kts 322°
2026-04-27 15:59 28.12139 49.03163 23807 ft 373 kts 322°
2026-04-27 15:59 28.14380 49.01686 23809 ft 373 kts 322°
2026-04-27 16:00 28.16619 49.00211 23817 ft 373 kts 322°
2026-04-27 16:00 28.18105 48.99231 23817 ft 372 kts 322°
2026-04-27 16:00 28.21101 48.97254 23816 ft 372 kts 322°
2026-04-27 16:00 28.23331 48.95784 23569 ft 369 kts 322°
2026-04-27 16:01 28.25549 48.94325 23055 ft 367 kts 323°
2026-04-27 16:01 28.27750 48.92880 22553 ft 364 kts 323°
2026-04-27 16:01 28.29932 48.91444 22033 ft 362 kts 323°
2026-04-27 16:01 28.32109 48.90006 21804 ft 362 kts 323°
2026-04-27 16:02 28.34279 48.88564 21805 ft 363 kts 323°
2026-04-27 16:02 28.36471 48.87102 21092 ft 370 kts 323°
2026-04-27 16:02 28.38684 48.85630 20722 ft 364 kts 324°
2026-04-27 16:02 28.40838 48.84212 20589 ft 351 kts 324°
2026-04-27 16:03 28.42920 48.82844 20463 ft 339 kts 324°
2026-04-27 16:03 28.44922 48.81527 20340 ft 327 kts 324°
2026-04-27 16:03 28.46216 48.80674 20245 ft 321 kts 324°
2026-04-27 16:03 28.48128 48.79406 19948 ft 317 kts 323°
2026-04-27 16:04 28.50020 48.78142 19598 ft 315 kts 324°
2026-04-27 16:04 28.51908 48.76879 19270 ft 312 kts 324°
2026-04-27 16:04 28.53750 48.75649 19122 ft 304 kts 324°
2026-04-27 16:04 28.55572 48.74437 18820 ft 303 kts 324°
2026-04-27 16:05 28.57292 48.73102 18561 ft 296 kts 314°
2026-04-27 16:05 28.58671 48.71404 18345 ft 291 kts 302°
2026-04-27 16:05 28.59887 48.69563 18153 ft 291 kts 303°
2026-04-27 16:05 28.61106 48.67727 17937 ft 291 kts 303°
2026-04-27 16:06 28.62325 48.65895 17737 ft 290 kts 303°
2026-04-27 16:06 28.63542 48.64068 17540 ft 289 kts 303°
2026-04-27 16:06 28.64754 48.62245 17341 ft 288 kts 303°
2026-04-27 16:06 28.65961 48.60429 17142 ft 287 kts 303°
2026-04-27 16:07 28.67163 48.58618 16947 ft 287 kts 303°
2026-04-27 16:07 28.68365 48.56805 16749 ft 287 kts 303°
2026-04-27 16:07 28.69567 48.54997 16497 ft 286 kts 303°
2026-04-27 16:07 28.70768 48.53193 16245 ft 285 kts 303°
2026-04-27 16:08 28.71965 48.51391 15987 ft 285 kts 303°
2026-04-27 16:08 28.73209 48.49642 15769 ft 286 kts 311°
2026-04-27 16:08 28.74787 48.48236 15507 ft 291 kts 326°
2026-04-27 16:08 28.76566 48.47135 15258 ft 291 kts 328°
2026-04-27 16:09 28.78341 48.46041 15024 ft 290 kts 328°
2026-04-27 16:09 28.81889 48.43850 14551 ft 289 kts 328°
2026-04-27 16:09 28.83647 48.42759 14313 ft 288 kts 328°
2026-04-27 16:10 28.87153 48.40577 13860 ft 286 kts 328°
2026-04-27 16:10 28.90644 48.38409 13364 ft 285 kts 328°
2026-04-27 16:11 28.92384 48.37328 13106 ft 284 kts 328°
2026-04-27 16:11 28.95848 48.35166 12607 ft 283 kts 328°
2026-04-27 16:12 28.99291 48.33017 12105 ft 281 kts 328°
2026-04-27 16:12 29.01005 48.31950 11859 ft 281 kts 328°
2026-04-27 16:12 29.04427 48.29824 11375 ft 279 kts 328°
2026-04-27 16:13 29.06129 48.28761 11136 ft 278 kts 328°
2026-04-27 16:13 29.09521 48.26640 10677 ft 277 kts 328°
2026-04-27 16:13 29.11211 48.25583 10451 ft 276 kts 328°
2026-04-27 16:14 29.14591 48.23467 9994 ft 277 kts 329°
2026-04-27 16:14 29.17960 48.21356 9518 ft 275 kts 328°
2026-04-27 16:15 29.21310 48.19266 9024 ft 274 kts 327°
2026-04-27 16:15 29.24640 48.17181 8533 ft 272 kts 327°
2026-04-27 16:16 29.27953 48.15104 8047 ft 271 kts 327°
2026-04-27 16:16 29.31257 48.13034 7562 ft 270 kts 328°
2026-04-27 16:17 29.34540 48.10978 7088 ft 268 kts 328°
2026-04-27 16:17 29.37731 48.08968 6613 ft 256 kts 328°
2026-04-27 16:18 29.40789 48.07049 6187 ft 243 kts 327°
2026-04-27 16:18 29.43604 48.05320 6114 ft 225 kts 333°
2026-04-27 16:19 29.45065 48.04625 6111 ft 224 kts 334°
2026-04-27 16:19 29.46510 48.03949 6107 ft 224 kts 334°
2026-04-27 16:20 29.49662 48.00765 5875 ft 201 kts 266°
2026-04-27 16:20 29.49389 47.99241 5597 ft 199 kts 247°
2026-04-27 16:20 29.48349 47.96280 5083 ft 200 kts 244°
2026-04-27 16:21 29.47819 47.94810 4843 ft 200 kts 244°
2026-04-27 16:21 29.45736 47.90903 4199 ft 190 kts 202°
2026-04-27 16:22 29.44484 47.90426 3974 ft 190 kts 195°
2026-04-27 16:22 29.41946 47.89671 3590 ft 187 kts 194°
2026-04-27 16:22 29.40693 47.89309 3398 ft 185 kts 194°
2026-04-27 16:23 29.39450 47.88961 3194 ft 183 kts 194°
2026-04-27 16:23 29.36976 47.88263 2758 ft 183 kts 194°
2026-04-27 16:23 29.35733 47.87925 2667 ft 186 kts 187°
2026-04-27 16:24 29.34453 47.88032 2646 ft 188 kts 165°
2026-04-27 16:24 29.32000 47.89299 2135 ft 196 kts 157°
2026-04-27 16:25 29.29584 47.90594 1671 ft 179 kts 156°
2026-04-27 16:25 29.27554 47.91675 1240 ft 142 kts 154°
2026-04-27 16:26 29.25855 47.92579 896 ft 130 kts 151°
2026-04-27 16:26 29.24215 47.93441 507 ft 129 kts 151°
2026-04-27 16:27 29.22606 47.94303 211 ft 126 kts 153°
2026-04-27 16:27 29.21365 47.95048 193 ft 27 kts 124°
2026-04-27 16:28 29.21374 47.95206 182 ft 8 kts 332°
2026-04-27 16:28 29.21450 47.95170 193 ft 6 kts 338°
2026-04-27 16:29 29.21789 47.94991 183 ft 24 kts 335°
2026-04-27 16:30 29.21998 47.95100 164 ft 16 kts 65°
2026-04-27 16:30 29.22111 47.95370 161 ft 24 kts 66°
2026-04-27 16:31 29.22345 47.95937 160 ft 25 kts 65°
2026-04-27 16:31 29.22498 47.96317 161 ft 26 kts 66°
2026-04-27 16:32 29.22612 47.96596 165 ft 4 kts 67°
2026-04-27 16:32 29.22630 47.96632 168 ft 7 kts 46°
2026-04-27 16:33 29.22859 47.96535 169 ft 16 kts 332°
2026-04-27 16:33 29.22948 47.96490 170 ft 13 kts 341°
2026-04-27 16:33 29.22998 47.96481 172 ft 3 kts 19°
2026-04-27 16:33 29.23008 47.96491 175 ft 6 kts 44°
2026-04-27 16:34 29.23027 47.96535 181 ft 2 kts 67°
2026-04-27 16:34 29.23029 47.96540 182 ft 2 kts 67°
2026-04-27 16:34 29.23032 47.96548 182 ft 0 kts 67°
2026-04-27 16:35 29.23038 47.96564 196 ft 6 kts 66°
2026-04-27 16:36 29.23067 47.96637 197 ft 13 kts 65°
2026-04-27 16:36 29.23114 47.96753 191 ft 19 kts 66°
2026-04-27 16:36 29.23170 47.96872 175 ft 15 kts 27°
2026-04-27 16:36 29.23272 47.96817 178 ft 19 kts 336°
2026-04-27 16:37 29.23389 47.96775 177 ft 15 kts 38°
2026-04-27 16:37 29.23436 47.96904 169 ft 22 kts 61°
2026-04-27 16:37 29.23507 47.97072 167 ft 25 kts 65°
2026-04-27 16:37 29.23611 47.97175 167 ft 22 kts 341°
2026-04-27 16:38 29.23673 47.97124 167 ft 0 kts 332°
2026-04-27 16:38 29.23689 47.97114 167 ft 6 kts 332°
2026-04-27 16:38 29.23736 47.97102 167 ft 8 kts 26°
2026-04-27 16:39 29.23766 47.97164 167 ft 4 kts 65°
2026-04-27 16:39 29.23770 47.97176 167 ft 0 kts 71°